Regional Weather Roundup
Issued by NWS

Home | Current Version | Previous Version | Graphics & Text | Print | Product List | Glossary On
Versions: 1 2 3 4 5 6 7 8 9 10 11 12 13 14 15 16 17 18 19 20 21 22 23 24 25 26 27 28 29 30 31 32 33 34 35 36 37 38 39 40 41 42 43 44 45 46 47 48 49 50
000
ASUS43 KIND 242159
RWRIN

WEATHER ROUNDUP FOR INDIANA
NATIONAL WEATHER SERVICE INDIANAPOLIS IN
600 PM EDT TUE APR 24 2018

NOTE: "FAIR" INDICATES FEW OR NO CLOUDS BELOW 12,000 FEET WITH NO
SIGNIFICANT WEATHER AND/OR OBSTRUCTIONS TO VISIBILITY.

* - STATION DOES NOT REPORT WEATHER SUCH AS PRECIPITATION OR FOG.

+ - STATION NOT QUALITY CONTROLLED BY THE NATIONAL WEATHER SERVICE.
    USE DATA WITH CAUTION...ESPECIALLY DEWPOINT AND RELATIVE
    HUMIDITY OBSERVATIONS.

INZ001>003-010>013-019-020-242300-
NORTHWEST INDIANA

CITY           SKY/WX    TMP DP  RH WIND       PRES   REMARKS
GARY /AIRPORT/ PTSUNNY   54  46  76 N9        30.01
KNOX *+        CLOUDY    55  50  82 N14       29.96S
MONTICELLO +   CLOUDY    58  50  74 N8        29.95S
RENSSELAER +   CLOUDY    59  46  63 N12       29.97R

$$

LMZ046-743>745-242300-
SOUTHERN LAKE MICHIGAN

STATION/POSITION TIME  TEMP    WIND        PRES    WAVE
                       AIR SEA DIR/SP/G            HT
                 (UTC) (F)     (DEG/KT/KT) (MB)    (FT)
BURNS HARBOR     2140   47      50/  6/  8 1016.3F
MICHIGAN CITY    2130   44      20/  6/  6   N/A

$$

INZ004-005-014>016-021>024-242300-
NORTH CENTRAL INDIANA

CITY           SKY/WX    TMP DP  RH WIND       PRES   REMARKS
GOSHEN         CLOUDY    58  50  75 NE10      29.96F
ROCHESTER +    PTSUNNY   59  52  77 NE6       29.96S
SOUTH BEND     CLOUDY    58  48  69 NW13      29.98R
WARSAW +       CLOUDY    55  50  82 NE6       29.96S

$$

INZ006>009-017-018-025>027-242300-
NORTHEAST INDIANA

CITY           SKY/WX    TMP DP  RH WIND       PRES   REMARKS
ANGOLA *+      CLOUDY    54  52  94 NE7       29.96S FOG
FORT WAYNE     DRIZZLE   56  52  86 NE7       29.95S

$$

INZ028-029-035-036-043>045-051>053-242300-
WEST CENTRAL INDIANA

CITY           SKY/WX    TMP DP  RH WIND       PRES   REMARKS
CRAWFORDSVL +  CLOUDY    55  52  89 N13       29.94S
GREENCASTLE +  CLOUDY    54  52  94 N8        29.94R
LAFAYETTE      CLOUDY    58  51  78 NE10      29.95R
TERRE HAUTE    CLOUDY    60  53  77 NE7       29.94S

$$

INZ030>032-037>040-046>048-054>057-064-065-242300-
CENTRAL INDIANA

CITY           SKY/WX    TMP DP  RH WIND       PRES   REMARKS
COLUMBUS       CLOUDY    55 N/A N/A CALM      29.92S
GREENWOOD *+   CLOUDY    55  52  89 N6        29.93S
INDIANAPOLIS   CLOUDY    56  53  90 N8        29.93R
-EAGLE CREEK   CLOUDY    56  52  86 N8        29.92S
KOKOMO +       CLOUDY    55  53  93 N12       29.95S
MT COMFORT *+  CLOUDY    54  54 100 N8        29.93R
SHELBYVILLE    CLOUDY    57  52  83 NE5       29.91S
ZIONSVILLE +   CLOUDY    53  53  99 N8        29.94S

$$

INZ033-034-041-042-049-050-058-059-242300-
EAST CENTRAL INDIANA

CITY           SKY/WX    TMP DP  RH WIND       PRES   REMARKS
MUNCIE         CLOUDY    57  53  86 N8        29.92F
RICHMOND +     CLOUDY    52  52 100 NE6       29.92S FOG

$$

INZ060-061-067>069-081>083-085>088-242300-
SOUTHWEST INDIANA

CITY           SKY/WX    TMP DP  RH WIND       PRES   REMARKS
EVANSVILLE     CLOUDY    59  54  83 N8        29.94R
HUNTINGBURG +  CLOUDY    57  53  86 N10G17    29.92R

$$

INZ062-063-066-070>080-084-089>092-242300-
SOUTH CENTRAL AND SOUTHEAST INDIANA

CITY           SKY/WX    TMP DP  RH WIND       PRES   REMARKS
BLOOMINGTON    LGT RAIN  56  54  93 N8        29.92S
FRENCH LICK *+ CLOUDY    54 N/A N/A CALM      29.92S
SEYMOUR +      DRIZZLE   57  55  94 N7        29.91R

$$





USA.gov is the U.S. government's official web portal to all federal, state and local government web resources and services.